Vorticity
nan nan nan nan nan nan nan nan nan nan nan nan nan nan nan nan nan nan nan nan nan nan nan nan nan nan nan nan nan nan nan nan nan nan nan nan nan nan nan nan nan nan nan nan nan nan nan
nan 8 7 7 7 9 7 9 9 11 13 9 8 8 7 7 7 8 7 6 7 10 14 17 13 5 4 8 12 8 7 10 9 6 6 6 9 8 5 8 9 9 9 9 8 8 nan
nan 7 7 8 8 7 9 8 11 11 11 9 6 8 9 8 8 8 10 9 9 8 8 19 19 3 8 6 6 11 6 5 10 7 5 9 10 10 7 7 10 10 5 9 10 9 nan
nan 7 7 7 8 8 9 9 9 10 9 10 12 11 9 9 8 9 10 11 11 12 5 17 21 0 7 12 6 7 7 8 13 13 6 7 9 8 8 9 9 7 6 10 12 9 nan
nan 7 7 7 7 8 8 10 10 10 10 11 12 12 11 9 9 9 12 10 9 13 10 22 15 5 8 12 13 5 6 8 8 12 14 4 7 7 8 11 6 7 7 4 9 14 nan
nan 7 6 10 9 9 10 10 11 11 10 11 12 11 10 9 12 10 12 18 21 17 16 19 7 7 14 10 11 8 5 10 11 7 7 4 8 10 7 8 8 4 6 8 7 10 nan
nan 8 8 8 10 10 9 10 10 10 11 12 10 8 10 14 10 12 16 16 20 22 12 10 5 4 17 12 13 12 7 10 8 5 7 8 9 9 8 2 2 6 7 8 8 10 nan
nan 7 10 8 8 8 9 9 9 10 10 9 10 9 10 9 9 17 16 10 9 12 14 13 4 7 9 8 11 8 7 9 9 7 6 9 9 9 9 6 6 9 9 7 7 8 nan
nan 8 9 9 9 8 8 9 9 9 8 9 11 11 11 6 11 20 14 9 9 10 16 12 9 13 1 5 14 10 2 8 9 9 9 6 12 11 2 9 11 9 11 13 9 8 nan
nan 7 8 9 9 8 9 10 10 9 10 11 9 7 6 14 22 10 9 17 9 4 17 14 10 12 7 7 14 10 6 6 10 11 6 2 8 13 12 8 8 5 11 12 10 13 nan
nan 8 9 10 9 9 9 9 8 11 11 10 7 6 9 24 20 7 14 13 3 5 15 10 10 9 7 14 12 5 4 11 14 8 7 10 8 8 8 12 10 9 7 6 7 7 nan
nan 9 8 10 10 10 9 8 8 12 12 7 6 7 21 28 14 12 12 4 4 5 10 10 12 8 12 8 4 14 7 9 13 11 3 7 10 12 9 8 10 11 6 6 8 8 nan
nan 8 8 10 10 10 9 8 11 11 11 7 7 16 28 19 11 16 6 4 8 11 11 13 14 12 7 7 13 10 6 8 7 7 11 7 6 8 8 9 7 7 6 8 9 11 nan
nan 9 8 11 10 10 10 9 10 9 10 7 12 25 21 14 16 10 3 10 6 9 16 16 14 6 4 8 10 11 7 4 4 8 13 8 11 14 7 8 10 6 6 8 8 6 nan
nan 9 9 11 11 9 9 10 10 11 9 12 26 23 12 10 12 6 8 9 7 9 18 9 6 5 6 7 10 8 9 8 9 7 8 6 11 12 11 9 9 10 8 6 10 8 nan
nan 8 9 11 11 9 9 9 9 12 15 30 27 9 5 8 10 9 8 6 11 17 12 2 3 12 12 7 7 12 9 6 10 8 2 7 14 9 9 7 7 11 7 5 11 13 nan
nan 9 11 10 10 9 9 9 10 12 26 29 13 10 3 10 13 9 9 8 14 10 -4 8 13 14 11 7 8 13 8 9 12 9 4 6 7 9 9 10 8 6 7 7 11 9 nan
nan 9 10 10 10 10 8 8 9 15 26 21 11 7 9 12 13 9 8 9 13 8 8 10 9 13 14 8 7 9 11 11 16 9 4 8 9 12 8 11 10 7 9 6 4 8 nan
nan 9 9 9 10 9 8 9 9 14 26 21 10 9 9 10 9 11 11 9 8 8 16 15 14 16 10 5 8 6 7 16 19 11 9 6 6 8 10 14 17 11 9 7 3 10 nan
nan 8 9 9 10 9 9 9 8 13 26 23 8 8 11 10 8 6 8 11 13 8 9 14 16 11 6 7 14 12 4 10 12 12 13 8 10 11 6 3 7 9 10 11 6 -2 nan
nan 8 8 8 9 9 9 9 9 15 26 19 10 10 10 8 12 12 9 3 7 11 8 12 15 11 7 12 13 8 8 8 8 10 10 9 8 9 8 8 7 9 7 6 5 3 nan
nan 8 7 8 8 9 8 8 9 17 25 19 8 7 10 11 10 10 7 8 8 10 9 13 9 8 13 12 12 13 8 9 9 10 8 8 10 8 12 17 10 9 12 13 12 13 nan
nan 8 8 8 8 9 9 9 9 16 24 15 10 11 9 10 10 11 12 10 9 7 8 11 11 8 3 7 11 11 9 15 17 10 9 9 10 8 8 10 15 17 18 15 13 13 nan
nan 8 8 7 8 7 8 9 9 10 22 18 10 10 9 11 11 9 11 12 10 12 11 6 11 11 6 7 9 10 11 11 9 9 10 10 8 7 8 10 13 13 14 13 9 7 nan
nan 9 8 8 8 7 7 8 9 9 18 21 10 10 11 11 9 10 8 10 8 9 9 9 8 9 11 12 13 10 7 9 11 12 6 8 9 9 11 10 7 11 14 13 11 10 nan
nan 9 10 10 7 8 7 7 7 9 17 21 12 9 10 12 8 9 15 10 7 7 8 10 7 9 12 13 12 11 9 9 11 11 12 9 8 7 8 9 11 9 10 13 10 11 nan
nan 9 11 9 8 9 9 7 7 9 15 20 10 12 13 9 6 9 13 11 9 11 11 9 10 7 10 12 11 10 10 11 13 10 10 8 10 10 8 8 9 13 13 8 5 12 nan
nan 8 10 8 9 9 10 9 9 8 13 18 13 9 11 10 10 10 5 4 9 13 12 8 7 11 11 12 10 10 10 10 12 13 10 9 8 10 11 8 12 12 9 11 10 9 nan
nan nan nan nan nan nan nan nan nan nan nan nan nan nan nan nan nan nan nan nan nan nan nan nan nan nan nan nan nan nan nan nan nan nan nan nan nan nan nan nan nan nan nan nan nan nan nan
CAPE
35 44 43 47 51 42 60 67 60 78 81 67 72 69 82 51 44 29 38 36 33 44 24 141 20 18 10 12 0 13 135 160 50 37 0 0 0 0 0 0 0 0 0 0 0 0 0
64 60 46 54 55 60 49 81 80 84 96 105 81 98 110 62 49 38 30 40 36 34 37 134 52 81 3 4 0 1 6 53 58 57 50 10 0 0 0 0 0 0 0 0 0 0 0
40 34 46 39 55 60 64 66 82 84 111 129 105 128 139 147 100 55 46 30 37 26 14 24 73 36 1 0 0 0 0 0 1 56 29 47 19 18 6 0 0 0 0 0 0 0 0
44 63 52 46 54 63 69 71 93 112 125 137 133 151 165 162 112 71 59 69 49 24 23 8 116 42 3 0 0 0 0 0 1 61 62 52 2 3 0 0 0 0 0 0 0 0 0
62 39 47 39 64 69 79 98 110 121 141 148 149 154 175 148 132 67 94 54 37 16 4 5 58 14 1 0 0 0 0 0 9 121 71 41 9 2 0 0 1 0 0 0 0 0 0
31 49 43 60 79 86 95 98 98 117 138 149 169 179 182 150 148 109 117 116 22 4 0 71 21 14 0 0 0 0 0 0 11 84 94 63 3 0 0 0 0 0 0 0 0 0 0
42 40 57 68 77 77 99 96 99 124 154 169 182 194 177 145 162 133 54 12 2 20 54 5 18 0 0 0 0 0 0 1 1 42 31 23 0 5 0 0 0 0 0 0 0 0 0
44 49 60 70 71 87 81 90 95 133 140 137 155 119 118 54 62 135 38 8 8 6 3 30 9 0 0 0 0 0 0 9 8 3 0 0 0 0 0 0 0 0 0 0 0 0 0
52 38 57 74 77 95 73 80 93 118 105 72 55 82 160 56 36 8 14 16 0 1 14 20 38 4 0 0 0 0 0 0 0 2 0 0 0 0 0 0 0 0 0 0 0 0 0
49 38 58 69 81 88 63 57 68 79 54 35 56 125 142 219 11 6 0 26 0 0 5 18 30 11 1 4 0 0 0 0 4 2 1 0 0 0 0 0 0 0 0 0 0 0 0
39 35 64 77 89 74 54 56 63 77 33 47 59 90 157 139 7 4 11 0 0 4 3 8 21 5 16 0 0 1 0 2 1 0 0 0 0 0 0 0 0 0 0 0 0 0 0
30 33 57 78 87 67 53 60 66 40 21 85 64 85 177 78 49 11 21 15 0 0 0 11 1 20 19 27 0 0 4 0 0 4 0 0 0 0 0 0 0 0 0 0 0 0 0
28 34 51 81 84 68 55 62 75 39 19 71 69 134 115 119 49 0 7 36 0 0 3 15 15 11 6 20 2 3 3 1 0 0 1 2 0 0 0 0 0 0 0 0 0 0 0
28 39 40 81 80 70 56 56 66 34 30 75 64 92 24 67 10 2 18 0 0 33 22 2 11 7 18 11 2 14 4 1 0 0 0 0 0 0 0 0 0 0 0 0 0 0 0
33 30 50 71 68 61 33 68 51 58 64 66 74 0 2 19 47 2 24 0 14 23 2 17 7 10 6 18 6 9 3 2 0 0 0 0 0 0 0 0 0 0 1 0 0 0 0
40 52 58 77 67 45 44 60 41 78 70 62 1 0 32 13 0 8 4 28 1 5 5 3 3 5 12 16 3 7 14 0 0 0 0 0 0 0 0 0 0 0 0 0 0 0 0
40 41 66 62 54 31 37 45 47 37 74 3 0 14 1 0 12 13 12 1 6 4 1 4 0 2 0 10 0 1 0 0 0 0 0 0 0 0 0 0 0 0 3 0 0 0 0
33 31 47 44 52 34 31 31 29 34 55 0 0 1 0 0 0 3 10 0 1 0 29 7 0 0 0 0 0 1 0 0 0 0 0 0 0 0 0 0 0 0 0 0 0 0 0
27 27 34 32 39 25 24 33 8 17 19 0 0 1 0 0 0 4 3 7 6 29 15 4 4 0 0 0 0 0 0 0 0 0 2 0 2 0 0 0 0 0 0 0 0 0 0
25 22 22 20 22 19 23 38 6 6 0 0 0 0 0 0 1 3 3 4 3 4 0 0 0 0 0 0 0 0 0 0 0 0 22 0 0 0 0 0 0 0 0 0 0 0 0
19 19 20 27 32 30 17 29 15 9 0 0 0 0 0 0 0 1 1 0 0 0 0 0 7 0 0 0 0 0 0 0 0 0 0 0 0 0 0 0 0 0 0 0 0 0 1
21 18 16 16 11 13 12 6 24 13 0 0 0 2 0 0 0 0 0 0 0 0 0 0 1 8 4 2 0 0 0 0 0 0 0 0 0 0 0 0 0 0 0 0 0 0 0
31 17 13 17 9 9 9 6 11 20 0 0 0 1 6 0 0 0 0 0 0 0 0 0 0 0 6 9 4 0 0 0 0 0 0 1 0 2 0 0 0 0 0 0 0 1 2
32 13 12 15 14 8 9 9 9 9 2 1 7 6 4 0 0 0 0 0 0 0 0 0 0 0 0 0 0 0 0 0 0 0 0 0 1 4 0 0 0 0 0 0 0 0 0
17 25 16 17 18 13 8 13 10 6 5 0 5 2 4 0 0 0 0 0 0 0 0 0 0 0 0 0 0 4 8 5 0 0 0 0 3 9 12 1 0 0 0 0 0 0 0
13 40 11 23 16 16 16 12 15 10 6 0 8 0 1 4 0 1 3 0 0 0 0 0 0 0 0 0 0 0 0 2 0 0 0 0 0 6 3 0 0 0 0 0 0 0 0
8 38 12 11 16 18 16 15 15 13 10 0 1 0 2 6 0 0 6 1 0 0 0 0 0 0 0 0 0 0 0 0 0 0 4 10 8 3 3 6 0 0 0 0 0 0 0
6 29 14 10 8 15 18 23 19 12 10 1 0 2 2 4 0 0 0 8 0 0 0 0 0 0 0 0 0 0 0 0 0 0 0 0 0 3 2 1 0 0 0 0 0 0 0
5 29 10 7 16 18 10 9 12 20 10 4 0 0 14 7 0 0 0 0 0 0 5 0 0 0 0 0 0 0 3 0 0 0 0 0 0 0 0 0 0 0 0 0 0 0 0